FW0059 Weather Reports


time (UTC)temp
C
wind
direction
speed
KPH
gust
KPH
rain 1hr
cm
rain 24hr
cm
rain mn
cm
humidity
%
barometer
mb
20260505034509 16 300 0.0 0.0 0.00 0.00 0.00 68 1015.0
20260505033012 17 300 0.0 0.0 0.00 0.00 0.00 71 1015.3
20260505031504 17 300 0.0 0.0 0.00 0.00 0.00 68 1015.2
20260505030033 17 300 0.0 0.0 0.00 0.00 0.00 63 1015.0
20260505024532 17 300 0.0 0.0 0.00 0.00 0.00 65 1014.9
20260505023029 17 300 0.0 0.0 0.00 0.00 0.00 70 1014.9
20260505021529 18 300 0.0 0.0 0.00 0.00 0.00 69 1014.8
20260505020036 17 300 0.0 0.0 0.00 0.00 0.00 67 1014.7
20260505014524 18 300 0.0 0.0 0.00 0.00 0.00 73 1014.7
20260505013024 18 300 0.0 0.0 0.00 0.00 0.00 70 1014.6
20260505011518 18 300 0.0 0.0 0.00 0.00 0.00 69 1014.6
20260505010015 19 300 0.0 0.0 0.00 0.00 0.00 68 1014.3
20260505004517 20 300 0.0 0.0 0.00 0.00 0.00 66 1014.2
20260505003007 20 300 0.0 0.0 0.00 0.00 0.00 62 1014.0
20260505001504 21 300 0.0 0.0 0.00 0.00 0.00 62 1014.0
20260505000109 21 300 0.0 0.0 0.00 0.00 0.00 57 1014.0
20260504234612 22 300 0.0 0.0 0.00 0.00 0.00 53 1014.1
20260504233058 22 300 0.0 0.0 0.00 0.00 0.00 50 1014.1
20260504231554 23 300 0.0 0.0 0.00 0.00 0.00 46 1014.0
20260504230055 23 300 0.0 0.0 0.00 0.00 0.00 43 1014.1
20260504224555 23 300 0.0 0.0 0.00 0.00 0.00 42 1014.1
20260504223055 23 300 0.0 0.0 0.00 0.00 0.00 43 1014.1
20260504221550 23 300 0.0 0.0 0.00 0.00 0.00 41 1014.3
20260504220057 24 300 0.0 0.0 0.00 0.00 0.00 39 1014.2
20260504214549 24 300 0.0 0.0 0.00 0.00 0.00 39 1014.1
20260504213107 24 300 0.0 0.0 0.00 0.00 0.00 39 1014.1
20260504211545 25 300 0.0 0.0 0.00 0.00 0.00 36 1014.2
20260504210042 25 300 0.0 0.0 0.00 0.00 0.00 37 1014.5
20260504204543 25 300 0.0 0.0 0.00 0.00 0.00 37 1014.6
20260504203039 25 300 0.0 0.0 0.00 0.00 0.00 34 1015.0
20260504201535 25 300 0.0 0.0 0.00 0.00 0.00 36 1015.1
20260504200034 25 300 0.0 0.0 0.00 0.00 0.00 35 1015.3
20260504194532 25 300 0.0 0.0 0.00 0.00 0.00 35 1015.4
20260504193030 26 300 0.0 0.0 0.00 0.00 0.00 34 1015.5
20260504191557 26 300 0.0 0.0 0.00 0.00 0.00 35 1015.7
20260504190106 28 300 0.0 0.0 0.00 0.00 0.00 33 1016.0
20260504184549 30 300 0.0 0.0 0.00 0.00 0.00 26 1016.3
20260504183057 36 300 0.0 0.0 0.00 0.00 0.00 22 1016.4
20260504181543 38 300 0.0 0.0 0.00 0.00 0.00 23 1016.5
20260504180107 38 299 0.0 0.0 0.00 0.00 0.00 24 1016.7
20260504174512 38 300 0.0 0.0 0.00 0.00 0.00 24 1016.8
20260504173005 38 300 0.0 0.0 0.00 0.00 0.00 24 1016.9
20260504171532 37 299 0.0 0.0 0.00 0.00 0.00 24 1017.0
20260504140103 17 300 0.0 0.0 0.00 0.00 0.00 77 1018.2
20260504081513 -17 0.0 0.0 0.00 0.00 0.00 1017.9
20260504050012 12 300 0.0 0.0 0.00 0.00 0.00 82 1018.7
20260504044511 12 300 0.0 0.0 0.00 0.00 0.00 80 1018.6
20260504043046 12 300 0.0 0.0 0.00 0.00 0.00 79 1018.5
20260504041537 12 300 0.0 0.0 0.00 0.00 0.00 79 1018.6
20260504040034 12 300 0.0 0.0 0.00 0.00 0.00 78 1018.5